Location: Unspecified
(58.7730°N, 5.8460°E)
Time: 19:57:43
(UTC+02:00)

Cosmos 2058 - Visible Passes

Search period start: 29 August 2016 00:00
Search period end: 08 September 2016 00:00
Orbit: 565 x 586 km, 82.5° (Epoch: 29 August)

Date Brightness Start Highest point End Pass type
(mag) Time Alt. Az. Time Alt. Az. Time Alt. Az.
29 Aug 3.6 00:48:30 10° N 00:52:32 44° ENE 00:53:16 40° E visible
29 Aug 4.0 02:25:43 10° NNW 02:29:23 30° W 02:29:29 30° W visible
29 Aug 5.4 23:16:29 10° NNE 23:18:13 12° NE 23:19:56 10° ENE visible
30 Aug 3.2 00:52:04 10° N 00:56:12 54° ENE 00:56:42 50° E visible
30 Aug 4.4 02:29:29 10° NNW 02:32:54 25° W 02:32:55 25° W visible
30 Aug 5.2 23:19:42 10° NNE 23:22:01 14° NE 23:23:55 11° E visible
31 Aug 2.9 00:55:40 10° N 00:59:50 67° ENE 01:00:08 64° ESE visible
31 Aug 4.7 02:33:18 10° NW 02:36:22 20° W 02:36:22 20° W visible
31 Aug 5.0 23:23:03 10° NNE 23:25:47 17° NE 23:27:22 14° E visible
01 Sep 2.8 00:59:16 10° NNW 01:03:27 83° ENE 01:03:35 81° ESE visible
01 Sep 4.9 02:37:12 10° NW 02:39:49 17° W 02:39:49 17° W visible
01 Sep 4.8 23:26:28 10° N 23:29:33 20° ENE 23:30:49 17° E visible
02 Sep 2.8 01:02:53 10° NNW 01:07:03 80° W 01:07:03 80° W visible
02 Sep 5.2 02:41:14 10° NW 02:43:17 14° W 02:43:17 14° W visible
02 Sep 4.5 23:29:55 10° N 23:33:16 23° ENE 23:34:17 21° E visible
03 Sep 3.1 01:06:31 10° NNW 01:10:31 63° W 01:10:31 63° W visible
03 Sep 5.4 02:45:33 10° WNW 02:46:45 11° WNW 02:46:45 11° WNW visible
03 Sep 4.2 23:33:24 10° N 23:37:00 27° ENE 23:37:46 26° E visible
04 Sep 3.4 01:10:10 10° NNW 01:14:00 50° W 01:14:00 50° W visible
04 Sep 3.9 23:36:55 10° N 23:40:42 32° ENE 23:41:15 31° E visible
05 Sep 3.8 01:13:51 10° NNW 01:17:29 40° W 01:17:29 40° W visible
05 Sep 3.6 23:40:27 10° N 23:44:23 39° ENE 23:44:44 38° E visible
06 Sep 4.1 01:17:34 10° NNW 01:20:58 33° W 01:20:58 33° W visible
06 Sep 5.3 22:08:46 10° NNE 22:10:00 11° NE 22:11:12 10° ENE visible
06 Sep 3.3 23:44:00 10° N 23:48:03 48° ENE 23:48:14 48° E visible
07 Sep 4.4 01:21:18 10° NNW 01:24:28 27° W 01:24:28 27° W visible
07 Sep 5.1 22:11:49 10° NNE 22:13:47 13° NE 22:15:30 11° ENE visible
07 Sep 3.0 23:47:34 10° N 23:51:41 59° ENE 23:51:45 59° ENE visible
